SCP
0 0 0 0 0 0 0 0 0 0 0 0 0 0 0 0 -0 0 0 0 1 0 0 0 0 1 0 0 0 0 0 0 0 0 0 0 0 0 0 0 0 0 0 0
0 0 0 0 0 0 0 0 0 0 0 0 0 0 -0 0 0 0 0 0 1 1 0 0 0 0 0 0 0 0 0 0 0 0 0 0 0 0 0 0 0 0 0 0
0 0 0 0 0 0 0 0 0 0 0 0 0 0 0 0 0 0 0 0 1 1 1 1 1 1 0 0 0 0 0 0 0 0 0 0 0 0 0 0 0 0 0 0
0 0 0 0 0 0 0 0 0 0 0 0 0 0 0 1 0 0 1 0 0 1 1 1 1 1 0 0 0 0 0 0 0 0 0 0 0 0 0 0 0 0 0 0
0 0 0 0 0 0 0 0 0 0 0 0 0 0 0 0 0 1 1 1 1 1 2 2 2 1 0 0 0 0 0 0 0 0 0 0 0 0 0 0 0 0 0 0
0 0 0 0 0 0 0 0 0 0 0 0 0 0 0 0 0 1 1 1 1 1 1 3 2 1 0 0 0 0 0 0 0 0 0 0 0 0 0 0 0 0 0 0
0 0 0 0 0 0 0 1 0 0 0 1 0 1 0 0 0 0 1 1 1 0 2 2 1 1 0 0 0 0 0 0 0 0 0 0 0 0 0 0 0 0 0 0
0 0 0 0 0 0 0 0 0 0 0 0 0 0 0 0 0 0 0 0 -0 1 2 1 1 1 0 0 0 0 0 0 0 0 0 0 0 0 0 0 0 0 0 0
0 0 0 0 0 0 0 0 0 0 0 0 0 0 0 0 0 0 0 0 0 1 1 1 1 1 1 0 0 0 0 0 0 0 0 0 0 0 0 0 0 0 0 0
0 0 0 0 0 0 0 0 0 0 0 0 0 0 0 0 0 0 0 -0 0 1 1 1 1 1 0 0 0 0 0 0 0 0 0 0 0 0 0 0 0 0 0 0
0 0 0 0 0 0 0 0 0 0 0 0 -0 0 0 0 0 0 0 0 1 0 0 0 0 0 0 0 0 0 0 0 0 0 0 0 0 0 0 0 0 0 0 0
0 0 0 0 0 0 0 0 0 0 0 0 0 0 -0 -0 -0 0 0 0 0 0 0 0 0 0 0 0 0 0 0 0 0 0 0 0 0 0 0 0 0 0 0 0
0 0 0 0 0 0 0 0 0 0 0 0 0 0 0 0 0 0 0 0 0 0 0 0 0 0 0 0 0 0 0 0 0 0 0 0 0 0 0 0 0 0 0 0
0 0 0 0 0 0 0 0 0 0 0 0 0 0 0 0 0 1 0 0 0 0 0 0 0 0 0 0 0 0 0 0 0 0 0 0 0 0 0 0 0 0 0 0
0 0 0 0 0 0 0 0 -0 0 0 0 0 0 0 0 0 0 0 0 0 0 0 0 0 0 0 0 0 0 0 0 0 0 0 0 0 0 0 0 0 0 0 0
0 0 0 0 0 0 0 0 -0 -0 0 0 0 0 0 0 0 0 0 0 0 0 0 0 0 0 0 0 0 0 0 0 0 0 0 0 0 0 0 0 0 0 0 0
0 0 0 0 0 -0 0 0 0 0 0 0 0 0 0 0 0 0 0 0 0 0 0 0 0 0 0 0 0 0 0 0 0 0 0 0 0 0 0 0 0 0 0 0
0 0 0 -0 -0 -0 0 0 0 0 0 0 0 0 0 0 0 0 0 0 0 0 0 0 0 0 0 0 0 0 0 0 0 0 0 0 0 0 0 0 0 0 0 0
0 0 -0 -0 0 0 0 0 0 0 0 0 0 0 0 0 0 0 0 0 0 0 0 0 0 0 0 0 0 0 0 0 0 0 0 0 0 0 0 0 0 0 0 0
-0 0 -0 -0 -0 0 0 0 0 0 -0 0 0 0 0 0 0 0 0 0 0 0 0 0 0 0 0 0 0 0 0 0 0 0 0 0 0 0 0 0 0 0 0 0
-0 0 -0 0 0 0 0 0 0 0 0 0 0 0 0 0 0 0 0 0 0 0 0 0 0 0 0 0 0 0 0 0 0 0 0 0 0 0 0 0 0 0 0 0
0 0 -0 0 -0 -0 0 0 0 0 0 0 0 0 0 0 0 0 0 0 0 0 0 0 0 0 0 0 0 0 0 0 0 0 -0 0 0 0 0 0 0 0 0 0
-0 -0 0 -0 -0 -0 0 0 0 0 0 0 0 0 0 0 0 0 0 0 0 0 0 0 0 0 0 0 0 0 0 0 0 0 -0 0 0 0 0 0 0 0 0 0
-0 -0 0 0 -0 -0 -0 0 0 0 0 0 0 0 0 0 0 0 0 0 0 0 0 0 0 0 0 -0 -0 -0 0 0 0 0 0 0 0 0 0 0 0 0 0 0
0 0 -0 -0 0 0 0 -0 0 0 0 0 0 0 0 0 0 0 0 0 0 0 0 0 0 0 0 -0 -0 0 0 0 -0 0 0 0 0 0 0 0 0 0 0 0
0 0 -0 -0 -0 -0 -0 -0 -0 -0 -0 0 0 0 0 0 0 0 0 0 0 0 0 0 0 0 -0 -0 -0 -0 0 0 0 0 -0 0 0 0 0 0 0 0 0 0
0 0 0 -0 0 -0 -0 -0 -0 -0 -0 -0 -0 -0 0 0 0 0 0 0 0 0 0 0 0 0 -0 -0 -0 0 0 0 0 -0 0 -0 -0 0 0 0 0 0 0 0
Wind_Speed_500mb
39 44 37 36 34 34 31 29 30 32 40 37 33 31 40 47 47 45 33 19 28 34 41 46 45 42 38 37 38 34 29 26 21 18 14 11 11 11 13 14 18 21 24 26
42 41 40 50 47 43 44 42 45 43 42 37 47 49 50 41 49 42 35 25 28 35 40 41 42 41 41 41 38 36 31 26 22 18 14 13 12 13 13 16 18 22 24 26
40 40 43 54 43 49 48 47 47 42 43 39 37 36 25 35 51 44 38 38 26 38 43 42 43 43 45 41 38 34 30 25 22 17 14 14 12 12 13 16 20 22 24 26
30 32 48 29 34 38 43 39 31 35 32 31 32 37 18 30 39 45 51 29 18 31 38 41 43 45 42 39 38 34 29 24 18 16 13 11 10 12 14 18 21 25 25 28
27 30 41 42 34 26 25 25 16 21 18 27 41 35 10 38 38 39 39 33 25 21 33 40 48 46 44 41 36 34 28 21 18 14 11 9 11 13 17 20 23 25 27 31
28 33 36 28 22 24 35 35 12 16 15 20 28 18 11 58 50 43 38 27 15 14 28 39 49 45 40 37 35 29 25 21 16 12 9 8 9 15 17 20 23 25 30 32
27 28 25 20 28 23 20 8 16 19 19 23 20 28 44 48 48 42 36 24 12 12 30 49 49 47 39 35 30 26 23 19 14 9 7 5 9 13 17 19 24 28 31 35
26 34 43 27 21 20 14 13 20 27 19 25 32 39 41 46 47 44 35 21 6 15 34 42 43 43 36 31 29 24 20 15 10 7 3 6 12 15 16 20 24 30 35 38
25 19 6 1 15 3 13 24 35 25 27 35 40 42 44 46 46 42 30 19 7 23 35 39 42 41 39 36 27 21 16 12 8 4 3 7 11 15 18 22 28 34 38 40
30 31 43 44 34 33 30 35 37 35 40 45 50 49 49 44 43 43 29 15 11 30 40 42 40 37 44 39 30 19 13 9 4 1 5 8 12 15 21 26 30 32 41 41
36 36 48 58 55 55 42 32 44 53 54 54 54 54 50 48 43 41 25 7 23 32 33 41 42 45 35 27 23 19 11 4 0 5 9 12 16 21 25 26 33 36 36 34
33 50 52 55 51 54 56 53 56 59 64 57 49 54 56 51 41 37 14 17 25 34 43 36 37 38 32 25 17 17 8 4 6 6 12 15 20 23 31 34 34 35 29 25
63 58 59 60 61 60 63 64 62 63 62 57 53 55 53 50 41 31 18 27 37 41 39 36 38 35 28 23 17 16 10 4 6 12 15 17 21 26 32 33 37 37 24 32
56 58 68 67 66 60 61 64 64 65 63 60 58 58 54 48 38 28 23 34 42 44 42 41 35 32 30 22 17 15 14 3 4 11 13 19 21 26 29 31 33 32 31 46
62 59 63 64 65 63 64 65 64 64 61 58 55 60 54 47 34 31 28 45 46 50 46 39 38 31 28 26 24 15 9 2 3 10 14 20 22 25 27 30 31 27 31 33
55 57 61 66 70 71 71 72 71 70 65 60 60 56 56 44 39 37 45 51 57 53 42 35 31 30 26 21 25 16 10 8 14 12 15 18 21 25 28 31 30 31 30 37
60 57 59 60 60 58 56 55 55 65 68 65 57 51 46 42 52 54 59 59 47 44 40 37 33 31 27 27 20 15 7 8 16 13 15 18 21 26 29 31 30 29 32 43
49 54 57 66 68 65 64 64 68 66 61 62 63 51 45 63 64 69 61 56 52 44 37 35 32 33 29 23 19 15 9 10 12 13 15 20 24 26 28 29 30 31 37 51
44 54 62 70 70 68 68 70 69 62 65 53 56 49 62 72 76 73 68 61 57 49 38 40 41 33 24 31 23 12 13 13 12 14 17 23 25 27 26 28 30 32 49 58
47 54 61 78 64 61 57 59 50 69 47 55 67 79 85 82 82 79 67 58 50 43 49 45 35 33 29 32 25 16 16 14 14 16 24 22 26 27 25 31 30 39 53 56
51 59 61 38 29 27 29 31 29 51 66 88 94 93 92 84 87 70 64 63 55 54 45 38 29 27 23 23 19 17 17 15 17 19 21 23 26 28 27 27 32 43 54 51
44 49 59 9 10 15 23 40 59 78 85 91 98 100 101 86 70 60 51 66 58 50 38 29 31 29 35 25 21 20 18 20 20 21 20 25 26 28 27 28 35 43 52 49
34 29 26 33 41 49 58 65 73 89 97 100 91 85 78 66 62 65 60 54 54 40 35 39 34 36 33 22 22 21 22 22 22 20 23 26 26 27 25 31 36 48 50 50
34 44 42 44 54 67 72 78 82 83 93 87 78 76 71 67 70 63 62 51 47 39 41 37 37 37 27 23 21 23 22 22 21 23 25 26 24 25 24 34 36 51 50 50
31 7 26 51 55 57 74 81 84 83 75 70 59 57 55 43 60 58 52 47 42 42 39 39 41 34 24 22 24 24 23 24 22 25 24 24 21 23 24 32 40 52 55 52
23 20 34 32 48 47 54 55 55 56 54 54 54 50 51 53 52 53 47 45 41 36 31 28 25 24 24 26 24 23 21 21 23 25 22 22 18 21 24 28 33 48 57 55
32 33 50 51 52 43 42 45 51 53 50 47 52 57 54 52 49 44 45 39 31 29 29 26 25 26 25 24 23 21 20 24 28 23 21 21 18 21 29 32 33 41 54 57
Wind_Direction_500mb
261 273 281 278 273 277 269 263 261 281 295 306 311 308 299 294 289 285 275 255 222 216 208 204 202 197 193 188 186 184 183 182 187 196 197 212 224 234 257 274 285 292 295 294
268 270 273 272 270 268 269 270 273 274 273 276 276 277 278 303 310 292 270 246 233 221 214 210 202 197 193 188 185 180 181 186 187 188 195 214 227 251 270 280 289 295 295 295
259 261 267 262 257 260 264 269 269 267 272 278 278 284 301 339 330 308 284 285 219 221 214 209 201 197 194 186 182 178 179 183 189 190 201 216 239 255 277 287 293 299 296 295
268 274 255 272 266 267 270 280 269 281 286 286 264 271 323 24 356 348 340 308 268 224 211 204 197 193 189 183 178 179 180 182 190 196 202 227 246 276 288 294 298 298 297 302
258 250 258 267 290 287 280 278 334 333 319 335 342 338 20 22 359 352 345 334 306 228 208 199 193 187 182 181 178 176 177 183 193 199 212 236 270 289 293 300 298 298 306 304
254 263 265 280 272 12 323 233 44 355 347 338 340 286 294 353 347 348 346 339 315 216 196 189 185 177 179 180 178 179 178 182 188 199 204 243 283 290 296 299 304 305 304 309
236 251 272 285 330 336 270 66 9 349 346 355 351 337 319 332 336 341 341 338 318 213 187 181 175 175 180 181 177 174 179 176 176 188 215 259 286 300 301 306 303 308 313 314
233 253 260 267 267 273 35 332 325 319 333 331 324 318 322 328 332 337 338 334 314 170 169 179 180 170 176 171 173 173 176 167 174 185 213 270 294 303 309 308 312 313 315 316
262 240 200 3 317 260 322 311 310 314 310 314 316 317 319 322 328 336 333 321 263 173 178 172 174 173 168 169 167 170 169 159 170 172 290 300 304 308 328 320 317 319 321 322
274 268 276 284 271 276 290 312 308 303 304 307 307 309 311 314 318 325 325 309 227 161 171 167 170 170 184 179 166 163 150 156 162 274 297 313 315 322 321 323 319 322 323 322
280 278 283 278 279 282 287 298 302 303 305 307 307 303 307 309 309 311 310 249 176 167 175 166 169 177 177 160 154 136 137 135 253 306 339 316 319 318 323 321 312 318 322 326
269 282 287 290 298 298 303 294 294 294 297 299 299 302 304 298 296 292 259 197 188 184 169 163 163 164 160 152 148 115 103 54 276 325 322 326 331 333 328 329 332 339 333 330
269 278 283 285 282 281 282 283 284 283 282 283 289 293 293 288 286 283 210 195 197 181 167 162 161 158 157 158 140 125 150 221 313 349 327 339 342 337 336 340 346 350 350 348
274 278 279 277 280 280 279 279 280 277 275 275 282 286 286 276 275 252 202 202 181 171 165 161 153 149 154 159 154 147 147 118 29 323 343 351 346 341 341 343 345 349 350 350
268 267 267 274 277 276 276 275 275 275 272 271 274 277 273 262 256 223 211 186 173 168 161 160 159 169 162 141 126 121 103 188 11 353 349 357 350 347 348 349 350 353 347 334
284 283 282 280 280 279 275 274 272 271 270 268 273 266 256 254 222 198 185 177 169 163 160 154 151 154 146 150 131 124 129 66 62 24 1 355 355 356 355 355 354 356 351 336
276 283 288 290 288 286 287 279 276 276 271 261 260 254 258 207 192 179 172 169 165 159 153 146 148 149 151 129 118 114 90 34 52 25 8 3 7 4 1 359 358 357 353 340
291 296 294 291 290 282 282 275 282 278 267 256 247 245 209 190 176 164 158 158 151 144 144 144 146 136 130 124 115 104 91 70 46 28 11 14 16 9 8 7 1 357 354 357
298 297 295 293 284 281 282 286 288 281 276 248 222 207 184 167 159 153 149 152 145 137 141 147 140 130 131 124 109 98 88 69 44 24 33 18 16 14 14 11 3 2 2 3
307 309 308 306 284 278 277 280 287 283 249 201 176 166 156 154 153 144 147 141 138 143 142 135 134 129 124 117 100 101 85 69 53 35 29 26 22 18 19 10 8 7 8 8
319 318 323 315 300 276 265 262 232 148 152 157 151 144 142 141 137 138 139 138 135 138 140 129 120 115 115 97 97 92 80 69 54 42 34 26 25 19 20 13 14 11 11 16
319 325 331 287 188 133 136 135 125 126 128 131 134 131 133 129 131 137 129 131 132 132 124 130 134 127 116 104 101 89 77 68 55 46 34 31 27 21 22 20 18 14 16 21
328 310 81 101 106 110 112 114 112 116 116 118 118 123 128 136 136 125 125 128 122 131 136 131 127 120 101 98 91 83 74 66 59 41 42 35 27 26 23 21 22 19 22 24
12 111 100 98 103 106 99 101 106 113 118 117 115 119 117 121 128 131 128 133 137 140 128 120 118 104 97 91 87 79 71 62 49 46 39 36 31 28 27 28 25 21 23 23
28 91 98 120 115 113 114 112 112 115 116 113 111 125 131 133 128 130 135 130 134 127 115 116 108 96 94 90 80 72 64 60 64 48 38 32 35 33 32 31 27 25 24 24
23 38 168 152 136 127 124 122 119 116 114 113 125 136 137 138 130 132 132 134 126 109 106 100 99 98 94 86 79 73 73 68 53 42 35 33 33 39 38 34 27 23 23 24
46 67 137 127 139 127 128 126 128 128 123 124 124 130 127 129 129 128 127 121 117 110 105 104 100 95 87 81 78 76 64 48 52 57 32 31 32 39 43 40 28 21 23 22
Wind_Speed_850mb
39 44 37 36 34 34 31 29 30 32 40 37 33 31 40 47 47 45 33 19 28 34 41 46 45 42 38 37 38 34 29 26 21 18 14 11 11 11 13 14 18 21 24 26
42 41 40 50 47 43 44 42 45 43 42 37 47 49 50 41 49 42 35 25 28 35 40 41 42 41 41 41 38 36 31 26 22 18 14 13 12 13 13 16 18 22 24 26
40 40 43 54 43 49 48 47 47 42 43 39 37 36 25 35 51 44 38 38 26 38 43 42 43 43 45 41 38 34 30 25 22 17 14 14 12 12 13 16 20 22 24 26
30 32 48 29 34 38 43 39 31 35 32 31 32 37 18 30 39 45 51 29 18 31 38 41 43 45 42 39 38 34 29 24 18 16 13 11 10 12 14 18 21 25 25 28
27 30 41 42 34 26 25 25 16 21 18 27 41 35 10 38 38 39 39 33 25 21 33 40 48 46 44 41 36 34 28 21 18 14 11 9 11 13 17 20 23 25 27 31
28 33 36 28 22 24 35 35 12 16 15 20 28 18 11 58 50 43 38 27 15 14 28 39 49 45 40 37 35 29 25 21 16 12 9 8 9 15 17 20 23 25 30 32
27 28 25 20 28 23 20 8 16 19 19 23 20 28 44 48 48 42 36 24 12 12 30 49 49 47 39 35 30 26 23 19 14 9 7 5 9 13 17 19 24 28 31 35
26 34 43 27 21 20 14 13 20 27 19 25 32 39 41 46 47 44 35 21 6 15 34 42 43 43 36 31 29 24 20 15 10 7 3 6 12 15 16 20 24 30 35 38
25 19 6 1 15 3 13 24 35 25 27 35 40 42 44 46 46 42 30 19 7 23 35 39 42 41 39 36 27 21 16 12 8 4 3 7 11 15 18 22 28 34 38 40
30 31 43 44 34 33 30 35 37 35 40 45 50 49 49 44 43 43 29 15 11 30 40 42 40 37 44 39 30 19 13 9 4 1 5 8 12 15 21 26 30 32 41 41
36 36 48 58 55 55 42 32 44 53 54 54 54 54 50 48 43 41 25 7 23 32 33 41 42 45 35 27 23 19 11 4 0 5 9 12 16 21 25 26 33 36 36 34
33 50 52 55 51 54 56 53 56 59 64 57 49 54 56 51 41 37 14 17 25 34 43 36 37 38 32 25 17 17 8 4 6 6 12 15 20 23 31 34 34 35 29 25
63 58 59 60 61 60 63 64 62 63 62 57 53 55 53 50 41 31 18 27 37 41 39 36 38 35 28 23 17 16 10 4 6 12 15 17 21 26 32 33 37 37 24 32
56 58 68 67 66 60 61 64 64 65 63 60 58 58 54 48 38 28 23 34 42 44 42 41 35 32 30 22 17 15 14 3 4 11 13 19 21 26 29 31 33 32 31 46
62 59 63 64 65 63 64 65 64 64 61 58 55 60 54 47 34 31 28 45 46 50 46 39 38 31 28 26 24 15 9 2 3 10 14 20 22 25 27 30 31 27 31 33
55 57 61 66 70 71 71 72 71 70 65 60 60 56 56 44 39 37 45 51 57 53 42 35 31 30 26 21 25 16 10 8 14 12 15 18 21 25 28 31 30 31 30 37
60 57 59 60 60 58 56 55 55 65 68 65 57 51 46 42 52 54 59 59 47 44 40 37 33 31 27 27 20 15 7 8 16 13 15 18 21 26 29 31 30 29 32 43
49 54 57 66 68 65 64 64 68 66 61 62 63 51 45 63 64 69 61 56 52 44 37 35 32 33 29 23 19 15 9 10 12 13 15 20 24 26 28 29 30 31 37 51
44 54 62 70 70 68 68 70 69 62 65 53 56 49 62 72 76 73 68 61 57 49 38 40 41 33 24 31 23 12 13 13 12 14 17 23 25 27 26 28 30 32 49 58
47 54 61 78 64 61 57 59 50 69 47 55 67 79 85 82 82 79 67 58 50 43 49 45 35 33 29 32 25 16 16 14 14 16 24 22 26 27 25 31 30 39 53 56
51 59 61 38 29 27 29 31 29 51 66 88 94 93 92 84 87 70 64 63 55 54 45 38 29 27 23 23 19 17 17 15 17 19 21 23 26 28 27 27 32 43 54 51
44 49 59 9 10 15 23 40 59 78 85 91 98 100 101 86 70 60 51 66 58 50 38 29 31 29 35 25 21 20 18 20 20 21 20 25 26 28 27 28 35 43 52 49
34 29 26 33 41 49 58 65 73 89 97 100 91 85 78 66 62 65 60 54 54 40 35 39 34 36 33 22 22 21 22 22 22 20 23 26 26 27 25 31 36 48 50 50
34 44 42 44 54 67 72 78 82 83 93 87 78 76 71 67 70 63 62 51 47 39 41 37 37 37 27 23 21 23 22 22 21 23 25 26 24 25 24 34 36 51 50 50
31 7 26 51 55 57 74 81 84 83 75 70 59 57 55 43 60 58 52 47 42 42 39 39 41 34 24 22 24 24 23 24 22 25 24 24 21 23 24 32 40 52 55 52
23 20 34 32 48 47 54 55 55 56 54 54 54 50 51 53 52 53 47 45 41 36 31 28 25 24 24 26 24 23 21 21 23 25 22 22 18 21 24 28 33 48 57 55
32 33 50 51 52 43 42 45 51 53 50 47 52 57 54 52 49 44 45 39 31 29 29 26 25 26 25 24 23 21 20 24 28 23 21 21 18 21 29 32 33 41 54 57
Wind_Direction_850mb
261 273 281 278 273 277 269 263 261 281 295 306 311 308 299 294 289 285 275 255 222 216 208 204 202 197 193 188 186 184 183 182 187 196 197 212 224 234 257 274 285 292 295 294
268 270 273 272 270 268 269 270 273 274 273 276 276 277 278 303 310 292 270 246 233 221 214 210 202 197 193 188 185 180 181 186 187 188 195 214 227 251 270 280 289 295 295 295
259 261 267 262 257 260 264 269 269 267 272 278 278 284 301 339 330 308 284 285 219 221 214 209 201 197 194 186 182 178 179 183 189 190 201 216 239 255 277 287 293 299 296 295
268 274 255 272 266 267 270 280 269 281 286 286 264 271 323 24 356 348 340 308 268 224 211 204 197 193 189 183 178 179 180 182 190 196 202 227 246 276 288 294 298 298 297 302
258 250 258 267 290 287 280 278 334 333 319 335 342 338 20 22 359 352 345 334 306 228 208 199 193 187 182 181 178 176 177 183 193 199 212 236 270 289 293 300 298 298 306 304
254 263 265 280 272 12 323 233 44 355 347 338 340 286 294 353 347 348 346 339 315 216 196 189 185 177 179 180 178 179 178 182 188 199 204 243 283 290 296 299 304 305 304 309
236 251 272 285 330 336 270 66 9 349 346 355 351 337 319 332 336 341 341 338 318 213 187 181 175 175 180 181 177 174 179 176 176 188 215 259 286 300 301 306 303 308 313 314
233 253 260 267 267 273 35 332 325 319 333 331 324 318 322 328 332 337 338 334 314 170 169 179 180 170 176 171 173 173 176 167 174 185 213 270 294 303 309 308 312 313 315 316
262 240 200 3 317 260 322 311 310 314 310 314 316 317 319 322 328 336 333 321 263 173 178 172 174 173 168 169 167 170 169 159 170 172 290 300 304 308 328 320 317 319 321 322
274 268 276 284 271 276 290 312 308 303 304 307 307 309 311 314 318 325 325 309 227 161 171 167 170 170 184 179 166 163 150 156 162 274 297 313 315 322 321 323 319 322 323 322
280 278 283 278 279 282 287 298 302 303 305 307 307 303 307 309 309 311 310 249 176 167 175 166 169 177 177 160 154 136 137 135 253 306 339 316 319 318 323 321 312 318 322 326
269 282 287 290 298 298 303 294 294 294 297 299 299 302 304 298 296 292 259 197 188 184 169 163 163 164 160 152 148 115 103 54 276 325 322 326 331 333 328 329 332 339 333 330
269 278 283 285 282 281 282 283 284 283 282 283 289 293 293 288 286 283 210 195 197 181 167 162 161 158 157 158 140 125 150 221 313 349 327 339 342 337 336 340 346 350 350 348
274 278 279 277 280 280 279 279 280 277 275 275 282 286 286 276 275 252 202 202 181 171 165 161 153 149 154 159 154 147 147 118 29 323 343 351 346 341 341 343 345 349 350 350
268 267 267 274 277 276 276 275 275 275 272 271 274 277 273 262 256 223 211 186 173 168 161 160 159 169 162 141 126 121 103 188 11 353 349 357 350 347 348 349 350 353 347 334
284 283 282 280 280 279 275 274 272 271 270 268 273 266 256 254 222 198 185 177 169 163 160 154 151 154 146 150 131 124 129 66 62 24 1 355 355 356 355 355 354 356 351 336
276 283 288 290 288 286 287 279 276 276 271 261 260 254 258 207 192 179 172 169 165 159 153 146 148 149 151 129 118 114 90 34 52 25 8 3 7 4 1 359 358 357 353 340
291 296 294 291 290 282 282 275 282 278 267 256 247 245 209 190 176 164 158 158 151 144 144 144 146 136 130 124 115 104 91 70 46 28 11 14 16 9 8 7 1 357 354 357
298 297 295 293 284 281 282 286 288 281 276 248 222 207 184 167 159 153 149 152 145 137 141 147 140 130 131 124 109 98 88 69 44 24 33 18 16 14 14 11 3 2 2 3
307 309 308 306 284 278 277 280 287 283 249 201 176 166 156 154 153 144 147 141 138 143 142 135 134 129 124 117 100 101 85 69 53 35 29 26 22 18 19 10 8 7 8 8
319 318 323 315 300 276 265 262 232 148 152 157 151 144 142 141 137 138 139 138 135 138 140 129 120 115 115 97 97 92 80 69 54 42 34 26 25 19 20 13 14 11 11 16
319 325 331 287 188 133 136 135 125 126 128 131 134 131 133 129 131 137 129 131 132 132 124 130 134 127 116 104 101 89 77 68 55 46 34 31 27 21 22 20 18 14 16 21
328 310 81 101 106 110 112 114 112 116 116 118 118 123 128 136 136 125 125 128 122 131 136 131 127 120 101 98 91 83 74 66 59 41 42 35 27 26 23 21 22 19 22 24
12 111 100 98 103 106 99 101 106 113 118 117 115 119 117 121 128 131 128 133 137 140 128 120 118 104 97 91 87 79 71 62 49 46 39 36 31 28 27 28 25 21 23 23
28 91 98 120 115 113 114 112 112 115 116 113 111 125 131 133 128 130 135 130 134 127 115 116 108 96 94 90 80 72 64 60 64 48 38 32 35 33 32 31 27 25 24 24
23 38 168 152 136 127 124 122 119 116 114 113 125 136 137 138 130 132 132 134 126 109 106 100 99 98 94 86 79 73 73 68 53 42 35 33 33 39 38 34 27 23 23 24
46 67 137 127 139 127 128 126 128 128 123 124 124 130 127 129 129 128 127 121 117 110 105 104 100 95 87 81 78 76 64 48 52 57 32 31 32 39 43 40 28 21 23 22